Vorticity
6 6 6 6 6 5 5 5 4 4 4 5 6 7 7 7 6 6 5 5 5 4 4 4 4 4 4 4 5 4 4 3 3 3 2 1 1 3 8 14 17 19 18 13 9 5 4 4 5 6 8 9 10 10 9 8 7 6 6 6 6 6 6 5 5 4 4 3 4 4 4 4 4 3 3 3 3 3 4 4 5 5 5 5 4 4 4 4 4 4 4 4 4 4 4 4 4 4 5 5 5 5 5
6 6 6 6 6 5 5 5 4 4 4 4 5 5 6 6 6 6 6 6 6 5 5 4 4 4 4 5 5 4 4 4 3 3 2 2 1 3 6 12 17 19 18 14 9 6 4 4 5 7 9 9 9 10 10 9 8 7 7 7 7 7 6 6 4 4 3 4 4 4 5 5 4 4 3 3 3 3 4 4 5 5 5 5 5 4 4 4 4 4 4 4 4 4 4 4 4 4 4 5 5 5 5
6 6 6 6 5 5 5 5 4 4 4 5 5 5 5 6 6 6 6 6 6 6 5 5 5 5 5 5 5 4 4 4 3 3 3 2 1 2 5 11 15 18 19 14 10 6 4 5 6 8 10 10 10 9 10 10 10 9 8 8 8 7 6 5 4 4 3 4 4 5 6 6 5 4 3 3 3 3 4 4 5 5 5 5 5 5 4 4 4 4 4 4 4 4 4 4 4 4 5 5 5 5 5
5 5 6 6 5 5 5 5 5 5 5 6 5 5 6 6 6 6 6 6 6 6 6 5 5 5 5 5 4 4 4 4 3 3 3 2 2 2 4 9 14 18 19 15 11 7 5 5 7 9 11 10 10 9 10 11 11 10 9 8 8 7 6 5 4 4 4 4 4 5 6 6 5 4 3 3 3 3 4 4 5 5 5 5 5 4 4 4 4 4 4 4 4 4 4 4 4 4 5 5 5 5 4
5 4 5 5 5 5 5 5 5 5 3 3 4 5 6 6 6 6 6 6 6 6 6 6 6 5 5 4 4 4 4 4 4 3 3 2 2 2 3 7 12 16 19 16 12 8 5 6 8 10 12 11 10 10 10 12 13 12 9 8 7 7 6 5 4 4 4 4 4 5 6 6 5 4 4 3 3 3 4 4 5 5 5 5 5 4 4 4 4 4 3 4 4 4 4 4 4 4 5 5 5 5 5
4 4 4 5 5 5 5 5 5 5 4 6 6 6 6 6 6 6 6 6 6 6 6 6 6 5 5 4 4 4 4 4 4 3 3 3 2 2 2 6 10 15 18 16 13 9 6 6 8 10 12 11 10 10 11 14 14 13 9 7 6 6 6 5 4 4 4 4 5 6 6 6 5 4 3 3 3 3 4 4 5 5 5 5 5 5 4 4 4 4 4 4 4 4 4 4 4 5 5 5 5 5 5
4 4 4 5 6 6 5 5 5 6 6 8 8 7 5 6 6 6 6 6 6 6 6 6 6 5 5 4 4 4 4 4 4 4 3 3 2 2 2 4 8 13 17 17 14 10 6 6 8 10 12 11 10 10 11 14 14 13 9 7 6 5 5 5 4 4 4 5 6 6 6 6 5 4 4 3 3 3 4 4 4 5 5 5 5 5 4 4 4 4 4 4 4 4 4 4 4 5 5 5 5 5 4
4 5 5 6 7 7 6 6 6 6 6 7 7 7 6 7 7 6 6 6 6 6 6 6 6 5 5 4 4 4 4 4 4 4 3 3 2 2 2 4 6 11 15 16 15 11 7 6 7 10 12 11 10 9 10 12 12 11 8 6 5 4 4 4 4 4 5 5 6 6 6 6 5 5 4 3 3 3 4 4 4 5 4 4 5 5 4 4 4 4 4 4 4 4 4 4 4 4 5 5 5 4 4
5 6 6 6 7 7 7 6 6 7 7 7 7 7 8 8 8 7 6 6 6 6 6 6 5 5 5 4 4 4 4 4 4 4 3 3 3 2 2 3 5 8 13 16 15 13 9 7 7 9 11 11 9 8 8 9 10 9 7 6 5 4 4 4 4 4 5 6 6 6 6 6 6 5 4 4 3 3 4 4 5 5 5 4 4 4 4 4 4 4 4 3 3 4 4 4 4 4 5 5 5 5 5
6 6 6 6 7 7 7 6 7 7 8 8 8 8 8 8 8 7 6 6 6 6 6 6 5 5 5 4 4 4 4 4 4 4 4 3 3 2 2 2 4 7 11 14 15 14 11 8 7 8 10 10 9 8 7 7 7 7 6 6 5 4 4 4 4 4 5 5 6 6 6 6 6 5 5 4 3 3 4 4 4 5 5 5 4 4 4 4 4 4 4 4 4 4 4 4 4 4 5 5 5 5 5
6 6 6 6 6 6 6 6 6 7 8 7 8 8 8 8 8 7 7 6 6 6 6 6 5 5 5 4 4 4 4 4 4 4 4 3 3 2 2 2 3 5 9 13 15 15 13 10 8 8 10 10 9 8 6 6 6 6 6 6 5 4 4 4 4 4 5 5 6 6 6 6 6 5 5 4 4 3 4 4 4 5 5 5 4 4 4 4 4 4 4 4 4 4 4 4 4 4 5 5 5 5 5
5 6 7 8 8 6 5 5 5 6 7 6 7 8 8 9 8 8 7 7 6 6 6 6 5 5 5 4 4 4 4 4 4 4 4 4 3 3 2 2 2 4 7 11 14 15 14 11 9 9 10 10 9 8 7 6 6 6 6 5 5 4 4 4 4 4 5 5 6 6 6 6 6 6 5 4 4 3 4 4 4 5 5 4 4 4 4 4 4 4 4 4 4 4 4 4 4 5 5 5 5 5 5
6 8 11 11 9 6 4 4 5 6 6 6 6 6 8 9 9 9 8 7 7 6 6 6 6 5 5 4 4 4 4 4 4 4 4 4 3 3 2 2 2 3 5 9 12 14 15 13 11 10 10 10 10 9 7 7 6 6 6 5 5 4 4 4 4 4 5 5 6 6 6 6 6 6 5 5 4 3 3 4 4 5 5 5 4 4 4 4 4 4 4 4 4 4 4 4 4 5 5 5 5 5 5
7 10 13 10 7 4 3 4 6 7 7 5 4 5 6 8 9 10 9 8 7 7 6 6 6 5 5 5 4 4 4 4 4 4 4 4 4 3 3 2 2 3 4 7 10 13 15 14 12 10 10 10 10 9 8 7 7 6 6 6 5 4 4 4 4 4 5 5 6 6 6 6 6 6 6 5 4 4 3 4 4 5 5 5 5 5 4 4 4 4 4 4 4 4 4 4 4 5 5 5 5 5 6
8 9 9 4 2 2 3 6 8 9 8 6 4 3 4 6 8 9 10 9 8 7 7 6 6 6 5 5 4 4 4 4 4 4 4 4 4 4 3 3 2 2 3 6 9 12 14 14 13 11 10 10 10 9 9 8 7 7 6 6 5 4 4 4 4 4 5 5 6 6 6 6 6 6 6 6 5 4 3 4 4 4 5 5 5 5 5 4 4 4 4 4 4 4 4 4 4 5 5 5 5 6 6
8 7 4 2 1 2 4 7 8 9 8 7 5 3 3 4 6 8 9 9 8 7 7 6 6 6 5 5 4 4 4 4 4 4 4 4 4 4 4 3 3 3 3 4 7 10 13 14 13 12 11 10 10 9 9 8 8 7 6 6 5 5 4 4 4 4 5 5 6 6 6 7 7 7 7 6 6 5 4 4 4 4 5 5 5 5 5 4 4 4 4 4 4 4 4 4 4 5 5 6 6 6 6
7 6 4 3 2 3 5 6 7 7 6 6 5 4 3 3 4 6 8 9 9 8 7 6 6 6 6 5 4 4 4 4 4 4 4 4 4 4 4 4 4 3 3 3 5 8 11 13 13 13 12 10 10 9 8 8 8 8 7 6 5 5 4 4 4 5 5 5 6 6 6 7 7 7 7 7 6 5 4 4 4 4 5 5 5 5 5 4 4 4 4 4 4 4 4 4 4 5 5 6 6 6 6
7 6 4 3 3 4 6 6 6 5 5 5 5 4 4 3 4 4 6 8 9 8 7 6 6 6 6 5 5 4 4 4 4 4 4 4 4 4 4 4 4 4 4 3 4 6 9 12 13 13 12 11 10 9 8 8 8 8 7 6 5 5 5 5 5 5 5 5 6 6 6 7 7 7 7 7 6 6 5 4 4 4 5 5 5 5 5 4 4 4 4 4 4 4 4 4 4 5 5 6 6 6 6
7 6 5 4 3 4 5 6 6 6 6 5 5 4 4 3 4 4 6 8 9 8 7 6 6 5 6 6 5 5 4 4 4 4 4 4 3 3 4 4 5 4 4 4 4 5 7 10 12 13 13 12 11 9 8 7 8 8 7 6 6 5 5 5 5 5 5 6 6 6 7 7 7 7 7 7 6 6 5 4 4 4 5 5 5 5 4 4 4 4 4 4 4 4 4 4 5 5 5 6 6 6 6
7 7 6 6 5 5 5 6 7 9 9 6 5 4 2 3 5 6 6 7 8 9 8 7 6 6 6 6 6 5 5 4 4 3 4 3 3 3 3 4 4 5 4 4 3 4 5 8 10 12 13 12 11 10 9 8 7 7 7 7 6 5 5 5 5 5 5 6 6 6 7 7 7 7 7 7 7 6 5 5 5 5 5 5 5 5 4 4 4 4 4 4 4 4 4 5 5 5 5 6 6 6 6
7 7 7 7 7 7 6 6 8 9 9 6 5 4 3 5 7 7 6 6 7 7 7 7 7 6 6 6 6 6 5 4 4 4 4 3 3 2 2 3 4 4 4 4 3 3 4 6 8 11 12 12 12 11 10 8 7 7 7 7 6 6 5 5 5 5 5 6 6 6 7 7 7 7 7 7 7 6 6 5 5 5 5 5 5 5 4 4 4 4 4 4 4 4 5 5 5 5 6 6 6 6 6
6 7 7 7 7 7 7 7 8 9 7 5 5 5 4 7 8 9 7 6 5 4 5 5 6 6 7 6 6 6 5 4 4 4 4 4 3 3 2 2 3 4 4 4 3 3 3 4 6 9 11 12 12 11 10 9 8 7 7 7 6 6 5 5 5 5 5 6 6 6 6 7 7 7 7 7 7 6 6 5 5 5 5 5 5 5 5 4 4 4 4 4 4 4 5 5 6 6 6 6 6 6 7
6 6 7 7 7 7 8 7 8 8 6 5 5 5 5 7 8 9 7 5 3 1 1 2 3 4 6 6 6 6 6 5 5 4 4 4 4 4 3 2 3 3 4 4 3 3 2 3 5 7 10 11 12 12 11 10 9 8 7 7 7 6 6 5 5 5 5 5 6 6 6 6 7 7 7 7 7 7 6 6 5 5 5 6 6 5 5 4 4 4 3 3 4 4 5 5 6 6 6 6 6 6 7
6 6 6 7 7 7 7 7 8 8 6 5 4 4 4 5 6 7 7 5 2 0 -2 -2 -1 1 3 4 6 6 6 6 6 5 4 5 5 4 4 3 3 3 4 4 4 3 3 3 4 5 7 10 11 12 12 11 10 9 8 8 7 7 6 6 5 5 5 5 5 6 6 6 7 7 7 7 7 7 6 6 5 5 5 6 6 5 5 4 4 4 3 3 4 4 5 6 6 6 6 6 6 6 7
5 6 6 7 7 7 7 7 7 7 7 8 5 2 2 3 4 5 5 4 3 2 -0 -2 -2 -0 1 3 4 5 6 6 6 6 6 6 6 5 5 4 4 4 4 4 4 4 3 3 3 4 5 8 10 12 12 12 11 10 9 8 8 7 7 6 6 6 5 5 5 6 6 6 6 7 7 7 7 7 7 6 6 5 5 6 6 5 5 4 4 3 3 3 3 4 5 6 6 6 6 6 6 6 7
4 4 6 6 7 7 7 7 7 7 7 9 6 3 2 3 4 4 4 3 3 4 3 1 0 0 1 2 3 4 5 5 6 6 6 7 7 6 6 5 4 4 4 4 4 4 4 4 3 3 4 6 8 10 12 12 12 11 10 9 8 8 7 7 6 6 6 5 5 5 6 6 6 6 7 7 7 7 7 6 6 5 5 5 5 5 5 5 4 3 3 3 3 4 4 6 6 7 7 6 6 6 7
2 3 4 5 6 6 6 7 7 7 7 8 6 5 3 4 4 5 4 3 2 3 5 5 4 3 2 2 2 3 4 5 5 6 6 7 8 8 7 6 5 4 4 4 4 4 4 4 4 3 3 4 6 8 11 12 12 12 11 10 9 8 8 7 7 6 6 6 5 5 6 6 6 6 7 7 7 8 7 7 6 6 5 5 5 5 5 5 4 4 3 3 3 4 4 5 6 7 7 6 6 6 7
1 3 4 3 4 5 6 6 7 7 7 6 6 6 5 5 5 5 5 4 4 4 6 7 7 6 3 2 2 3 4 5 6 6 6 7 8 9 10 8 7 5 4 4 3 4 4 4 4 3 3 3 4 6 9 11 12 12 11 11 10 9 8 8 7 7 6 6 5 5 5 6 6 6 6 7 7 8 8 7 7 6 6 6 5 5 5 5 4 4 3 3 3 4 4 5 6 6 7 6 6 6 7
1 4 4 3 3 3 4 5 6 7 8 7 7 7 7 6 6 6 5 5 5 6 7 9 9 7 4 3 2 1 2 4 6 6 6 7 8 10 11 10 9 7 5 4 4 3 3 4 4 4 3 3 3 4 6 8 10 12 12 11 11 10 9 9 8 7 7 6 6 5 5 5 6 6 6 7 7 8 8 8 7 7 6 6 6 5 5 5 4 4 3 3 3 3 4 5 6 6 7 6 6 6 7
2 3 4 4 4 3 3 4 5 6 8 8 9 9 9 8 8 7 6 6 5 6 7 9 9 7 5 3 1 -1 -1 2 4 6 7 7 8 9 11 12 10 9 7 6 4 4 4 3 3 4 3 3 3 3 4 6 8 10 11 12 12 11 10 10 8 8 7 7 6 6 5 5 5 6 6 7 8 8 8 8 8 7 6 6 6 6 5 5 4 4 3 3 3 3 4 4 5 6 6 6 6 6 6
4 4 4 5 6 6 4 3 3 4 5 7 8 9 10 10 9 8 7 6 6 6 6 8 8 7 6 4 2 -0 -4 -1 2 5 6 6 7 8 10 11 11 10 9 8 6 5 4 4 4 4 4 3 3 2 2 3 5 7 9 11 12 12 12 10 9 8 7 7 6 6 5 5 5 5 6 7 8 8 9 9 8 8 7 6 6 6 6 5 5 4 3 3 3 3 3 4 5 6 6 6 6 6 6
6 6 6 7 8 8 6 4 2 2 2 3 5 6 7 8 9 9 8 7 7 6 7 8 8 7 6 5 4 1 -4 -1 2 4 6 6 6 6 8 10 11 11 10 10 9 8 7 6 5 4 4 3 3 2 2 2 2 4 6 9 11 12 12 12 10 9 8 7 7 6 6 5 5 5 5 6 6 6 7 8 9 8 7 6 6 6 6 5 5 4 4 3 3 3 3 4 5 5 6 6 6 6 6
6 9 11 11 10 9 7 5 3 2 1 1 2 3 3 5 6 7 7 7 7 7 8 8 8 7 5 4 2 -2 -3 -0 2 5 6 5 4 4 6 7 8 9 9 10 10 9 9 8 7 6 5 4 4 3 2 2 2 2 4 6 8 10 12 12 11 10 9 8 8 7 6 6 5 5 5 6 5 4 4 7 8 8 8 7 6 6 6 5 5 4 4 3 3 3 3 4 4 5 6 6 6 6 6
8 16 21 17 13 9 6 4 2 1 0 1 2 2 1 2 5 8 9 7 6 6 7 8 8 7 4 2 1 -1 -0 2 4 7 8 6 3 2 2 3 4 4 5 6 7 8 8 9 8 8 7 6 5 4 3 2 2 2 2 3 5 7 9 11 11 11 11 10 9 8 7 6 6 5 5 6 7 6 4 6 8 8 8 7 6 6 6 5 5 5 4 3 2 2 2 3 4 5 6 6 6 6 6
5 15 28 22 15 9 5 3 1 0 0 1 2 3 2 2 5 10 14 12 9 6 5 7 7 6 4 4 3 3 2 4 6 8 9 7 4 1 -2 -4 -4 -3 -2 0 2 3 4 6 7 8 8 8 7 6 4 4 3 2 2 2 3 4 6 8 10 11 11 11 10 10 8 7 6 6 6 6 7 7 5 6 8 8 8 8 7 6 6 6 5 5 4 3 2 2 2 3 4 4 5 6 6 7 7
-6 -5 6 14 13 7 2 0 -0 -0 -1 -0 2 4 4 2 3 6 12 14 14 10 6 5 6 6 6 6 6 5 4 4 6 8 9 8 6 2 -4 -8 -9 -9 -7 -4 -2 -2 -1 0 2 4 6 7 7 7 6 5 4 3 2 2 2 2 4 6 8 10 11 11 11 11 10 9 8 7 6 6 6 6 6 6 7 8 8 8 8 7 6 6 5 5 4 3 2 2 2 2 3 4 5 5 6 6 7
-6 -16 -26 -12 -3 0 -2 -2 -1 -1 -1 -2 -0 2 5 4 3 2 4 10 13 12 5 3 3 5 6 6 5 5 6 5 5 6 7 8 7 4 -3 -7 -7 -4 -3 -1 -0 -1 -2 -2 -2 -1 2 4 6 6 6 6 5 4 4 3 2 2 2 3 5 7 8 10 11 11 11 10 9 8 7 6 6 6 6 6 7 8 8 8 8 8 7 6 6 5 4 4 3 2 2 2 3 3 4 5 5 6 7
0 -6 -20 -22 -17 -10 -6 -3 -0 1 1 -0 -2 -1 1 4 3 1 -0 6 11 11 6 2 1 2 4 4 4 5 7 7 6 5 6 7 8 7 1 -4 -5 -3 2 7 8 6 3 -0 -2 -3 -2 1 3 5 6 6 6 6 5 4 4 3 3 3 4 4 6 7 9 10 11 11 10 9 8 7 7 6 6 6 7 8 8 8 8 8 8 7 6 5 5 4 3 2 2 2 2 3 3 4 5 5 6
2 2 -1 -8 -11 -11 -8 -4 -0 3 4 2 -0 -2 -3 -0 1 1 -1 2 7 10 8 4 2 2 2 3 3 4 6 8 7 6 6 7 9 9 7 3 -1 -2 -1 6 11 13 10 5 1 -2 -2 -0 2 4 4 5 5 6 6 5 4 4 4 3 3 3 4 5 6 8 10 10 10 10 9 8 8 7 7 6 7 7 8 8 9 9 8 8 7 6 5 4 3 2 2 2 2 2 3 3 4 5 6
1 2 3 2 0 -3 -5 -3 0 3 5 4 1 -2 -4 -4 -2 -1 -2 -2 2 6 8 5 3 2 1 2 3 4 5 6 6 6 6 6 8 9 10 9 5 1 -3 -0 5 11 13 10 6 2 -1 -0 2 4 4 4 4 5 6 6 5 5 4 4 4 3 3 4 4 6 7 9 10 10 10 10 9 8 7 7 7 7 8 8 9 9 9 8 7 6 6 5 4 3 2 2 2 2 2 3 3 4 5
2 1 2 3 3 2 0 0 1 3 5 4 2 -1 -4 -4 -4 -2 -1 -0 0 2 8 6 4 2 1 2 5 7 8 7 6 4 4 4 4 6 9 11 10 7 2 -2 -1 2 8 11 11 7 2 0 2 4 5 4 4 5 5 6 6 6 5 4 4 4 4 4 4 5 5 6 7 9 10 10 10 9 9 8 8 7 8 8 8 9 9 9 8 7 6 5 4 3 2 2 2 2 2 2 3 3 4
4 2 1 2 2 2 2 2 2 3 4 4 3 1 -0 -1 -2 -1 2 8 8 7 10 12 10 9 11 12 13 13 12 11 8 6 4 3 2 3 4 8 10 10 7 1 -4 -5 -0 7 11 11 6 2 0 1 3 4 5 5 6 6 6 6 6 5 4 4 4 4 4 4 5 5 6 7 8 9 9 10 9 9 8 8 8 8 8 9 9 9 8 8 7 6 4 4 3 2 2 2 2 2 2 3 3
6 5 3 2 2 2 2 2 2 2 2 2 3 3 5 5 4 3 5 17 19 16 12 20 23 24 24 23 22 20 18 17 15 12 10 7 5 4 2 4 6 9 10 6 -1 -6 -6 2 7 10 8 3 -2 -4 -2 2 4 6 6 5 6 6 7 7 6 6 5 5 5 5 5 5 5 6 6 7 8 9 9 9 9 9 8 8 8 9 9 9 9 8 8 6 5 4 3 3 2 2 2 2 2 2 3
10 8 6 4 3 2 2 2 2 3 2 2 2 4 6 6 6 5 7 20 22 17 6 17 24 27 24 17 11 6 7 9 8 8 8 6 6 5 4 3 4 6 8 8 4 -1 -5 -2 2 6 6 0 -3 -4 -1 4 6 6 4 2 2 3 5 6 7 7 6 6 5 5 5 5 5 5 6 6 7 8 9 9 9 9 9 8 8 9 9 9 9 9 8 7 6 5 4 3 3 2 2 2 2 2 2
12 10 9 7 6 4 3 2 2 3 3 3 3 4 4 4 3 4 6 13 10 -0 -15 -7 -1 2 -1 -11 -22 -31 -35 -25 -12 -2 -2 -4 -3 -0 2 2 4 4 6 7 7 5 3 2 3 4 3 -2 -5 -3 5 13 15 12 7 3 0 -2 -0 2 4 5 6 6 6 5 5 5 5 5 5 6 6 7 8 9 9 10 9 9 9 9 9 9 9 9 9 8 6 5 4 4 3 3 2 2 2 2 2
13 12 12 10 9 7 5 4 3 3 4 4 4 4 5 4 3 3 4 6 -0 -11 -26 -31 -31 -29 -29 -35 -44 -52 -57 -41 -18 1 4 -0 -3 -4 -2 0 3 6 6 6 6 7 7 8 9 8 5 -2 -7 -7 0 13 18 18 15 10 4 -1 -2 -2 -2 -0 1 3 4 5 5 5 5 6 5 5 6 6 7 8 8 9 10 10 9 9 9 9 9 9 9 8 7 6 5 4 4 3 3 2 2 2 2
14 14 14 13 12 11 9 7 6 5 5 5 5 5 6 5 4 4 5 2 -2 -7 -11 -14 -16 -18 -19 -18 -18 -20 -23 -13 1 12 11 6 3 0 -1 2 8 12 12 9 7 6 7 9 11 11 8 0 -6 -10 -10 -1 8 15 17 11 6 2 2 -0 -3 -4 -5 -4 -2 1 4 6 6 6 6 6 6 6 6 7 7 8 9 10 10 10 10 9 9 9 9 9 8 7 6 5 4 4 3 3 2 2 2
14 14 14 14 14 13 12 11 9 8 6 6 6 6 5 4 5 5 5 3 0 -2 -0 4 6 6 3 6 11 17 22 24 28 26 14 8 9 11 9 11 15 19 18 14 11 7 4 5 8 9 9 4 -2 -7 -10 -8 -1 7 11 7 4 3 4 3 2 0 -1 -2 -3 -2 0 4 6 6 6 6 6 6 7 7 7 8 8 9 10 10 10 10 10 10 10 9 9 8 7 6 5 4 3 3 2 2 2
13 14 14 14 14 14 14 13 12 10 8 7 7 6 5 4 4 5 5 4 4 3 3 6 8 9 8 10 16 22 28 33 34 29 17 11 11 19 34 36 29 19 12 12 12 11 7 4 4 6 8 7 4 1 -3 -5 -3 1 4 2 2 3 4 4 5 6 7 6 5 4 4 5 6 7 7 7 7 7 8 8 8 8 9 9 10 10 10 10 10 10 10 10 10 9 8 6 5 4 4 3 3 2 2
12 12 13 14 14 14 14 14 13 12 11 10 9 7 6 6 6 5 5 5 5 5 5 8 10 10 8 9 12 17 23 27 22 14 8 14 15 16 25 29 23 13 5 10 15 19 19 13 7 4 5 8 9 8 5 1 -1 -2 -3 -2 0 2 3 4 5 7 8 8 8 8 7 7 7 7 7 7 7 7 7 7 7 8 8 8 9 10 11 11 11 10 10 10 11 10 10 8 6 5 4 4 3 3 2
9 10 10 11 12 13 13 13 14 14 13 12 12 11 10 9 9 8 7 6 6 6 6 8 12 15 15 11 10 12 20 15 7 0 -4 6 10 10 8 14 17 17 17 22 26 29 31 24 14 5 -2 0 5 9 9 6 2 -2 -7 -6 -2 0 1 1 2 4 6 7 8 7 6 5 6 7 8 7 6 5 4 4 4 3 3 4 5 7 9 10 11 11 11 11 11 11 11 10 8 7 6 5 4 3 2
6 7 7 8 10 11 11 12 13 14 14 14 14 14 13 12 11 11 10 8 8 7 8 6 6 9 15 14 13 12 12 3 -1 -2 -3 -2 -0 1 1 1 3 8 16 21 20 17 14 13 13 13 11 2 -1 -0 3 4 4 -0 -6 -6 -4 -2 -2 -5 -6 -4 -0 5 9 10 9 7 6 6 8 7 6 4 3 1 -0 -1 -1 -1 -0 1 3 6 8 10 12 11 11 11 11 11 10 10 8 7 6 4 4
5 6 7 8 8 9 10 11 12 13 13 14 14 14 14 13 13 12 12 11 10 9 9 8 4 1 2 5 8 8 7 -1 -4 -4 -2 -4 -4 -4 -4 -7 -11 -14 -12 -10 -15 -23 -30 -22 -7 17 49 51 29 4 -7 -2 2 4 1 -1 -2 -2 -1 -4 -7 -10 -8 0 8 14 16 12 9 7 7 7 6 4 2 1 1 1 2 2 1 1 1 2 4 6 8 10 11 11 10 10 11 11 10 8 7 6 5
6 7 7 8 8 9 10 11 12 13 14 14 14 14 14 14 14 14 13 13 12 11 9 9 7 4 -0 1 1 -1 -3 -6 -7 -7 -4 -6 -6 -7 -9 -12 -18 -25 -34 -37 -37 -35 -37 -31 -16 9 41 69 66 42 9 3 3 5 5 3 1 -0 -1 -4 -8 -12 -13 -5 5 14 20 18 13 9 7 7 6 3 2 3 5 7 9 9 8 7 5 4 3 3 5 7 9 10 10 10 10 10 10 10 8 7 6
6 6 7 7 8 8 9 10 10 12 13 13 14 15 16 16 16 16 15 15 14 12 11 10 10 10 7 4 3 2 -2 -4 -4 -4 -4 -5 -8 -9 -7 -6 -6 -7 -9 -13 -12 -6 2 9 14 17 15 22 31 36 29 18 11 7 4 1 -1 -3 -5 -7 -10 -12 -13 -8 1 11 20 21 17 12 8 7 6 4 2 4 6 8 9 10 9 9 8 6 4 4 4 6 8 9 10 10 10 10 10 10 10 9 8
6 6 6 6 7 7 7 8 8 9 10 10 12 13 14 14 15 16 16 16 16 16 16 14 14 13 12 10 8 7 6 4 2 2 1 -1 -4 -6 -6 -3 0 4 9 16 20 24 27 24 19 14 9 2 -0 1 7 9 6 2 -3 -5 -6 -7 -6 -7 -7 -8 -8 -5 0 9 19 22 20 14 9 8 6 4 2 2 3 4 4 5 6 7 7 6 6 5 4 5 7 9 10 11 10 10 10 10 10 10 10
5 5 5 6 6 6 6 6 7 7 7 8 8 9 10 11 12 13 14 15 16 18 18 17 16 15 15 14 13 12 12 11 10 9 8 6 5 3 1 3 5 7 9 6 6 12 22 19 14 8 -0 -0 -3 -6 -9 -6 -5 -6 -8 -8 -7 -6 -4 -3 -3 -3 -3 -2 2 9 18 23 22 16 11 8 7 6 3 0 -1 -0 1 2 4 6 7 7 6 6 6 6 6 7 9 10 11 11 10 10 10 10 11
5 5 5 5 5 5 5 6 6 6 6 7 7 7 7 8 8 9 10 12 13 14 15 16 16 15 15 16 16 17 17 17 16 15 13 12 11 10 8 10 14 18 21 16 11 8 8 15 15 7 -8 -4 -0 0 -5 -7 -8 -8 -7 -6 -4 -2 0 0 0 -0 -0 1 4 10 18 22 22 17 11 8 8 8 5 -1 -3 -3 -0 3 6 9 10 10 9 8 6 6 6 6 7 8 9 10 10 10 10 9 9
6 6 5 5 5 4 5 5 5 6 6 6 7 7 7 7 7 7 7 8 9 10 10 12 13 13 14 16 17 18 19 19 19 18 16 17 16 15 14 14 14 16 18 20 20 17 10 10 7 2 -5 -5 -2 1 4 0 -2 -4 -4 -2 0 2 3 2 1 0 1 3 6 11 16 20 20 17 11 9 11 12 7 -1 -4 -4 -0 4 8 12 14 15 14 11 8 6 5 5 5 5 6 7 9 9 9 8 7
8 7 7 6 6 5 5 5 6 6 6 6 6 7 7 8 8 7 7 7 7 7 7 8 9 10 12 13 15 16 17 17 18 18 17 17 18 19 18 18 17 16 13 11 12 14 16 4 -4 -7 -4 -0 -0 1 5 6 5 4 3 4 4 4 3 2 1 2 2 5 7 10 14 17 17 15 11 9 11 13 10 0 -4 -4 -0 5 8 12 16 19 19 17 11 6 3 2 3 4 4 5 7 8 9 9 9
10 10 9 9 8 7 7 6 6 7 6 6 6 7 7 8 8 8 8 8 9 9 8 7 7 8 8 10 12 13 15 15 14 15 15 15 14 15 17 18 18 18 16 13 11 8 6 -2 -4 -4 -2 1 3 4 4 5 6 7 8 8 6 4 2 2 2 3 4 6 8 9 11 12 12 10 7 5 7 10 10 3 -2 -4 -1 4 8 11 14 19 22 22 17 10 5 2 1 2 4 5 7 8 9 10 11
Height
3157 3157 3158 3158 3158 3158 3158 3158 3158 3158 3158 3159 3159 3159 3159 3159 3159 3159 3159 3159 3159 3159 3159 3159 3159 3159 3158 3158 3158 3158 3158 3158 3158 3157 3157 3157 3157 3157 3157 3156 3156 3156 3156 3156 3156 3156 3156 3156 3156 3156 3157 3157 3158 3158 3159 3159 3159 3159 3160 3160 3161 3161 3162 3162 3162 3163 3163 3163 3164 3164 3164 3164 3165 3165 3165 3165 3165 3165 3166 3166 3166 3166 3166 3166 3166 3166 3166 3166 3166 3166 3166 3166 3166 3166 3166 3166 3166 3166 3166 3166 3166 3166 3165
3157 3157 3157 3157 3158 3158 3158 3158 3158 3159 3159 3158 3158 3159 3159 3159 3159 3159 3159 3159 3159 3159 3159 3159 3159 3158 3158 3158 3158 3158 3158 3158 3157 3157 3157 3157 3157 3156 3156 3156 3156 3156 3156 3156 3156 3156 3156 3156 3156 3156 3156 3157 3157 3158 3158 3158 3159 3159 3159 3160 3161 3161 3161 3162 3162 3163 3163 3163 3164 3164 3164 3164 3165 3165 3165 3165 3165 3165 3166 3166 3166 3166 3166 3166 3166 3166 3166 3166 3166 3166 3166 3166 3166 3166 3166 3166 3166 3166 3166 3166 3166 3166 3165
3156 3156 3157 3157 3157 3157 3157 3157 3158 3159 3159 3159 3158 3158 3158 3158 3158 3158 3158 3158 3159 3159 3159 3158 3158 3158 3158 3158 3158 3158 3158 3157 3157 3157 3157 3157 3156 3156 3156 3156 3156 3156 3156 3156 3156 3156 3156 3156 3156 3156 3156 3156 3157 3157 3158 3158 3158 3159 3159 3160 3160 3161 3161 3162 3162 3163 3163 3163 3163 3164 3164 3164 3164 3165 3165 3165 3165 3165 3166 3166 3166 3166 3166 3166 3166 3166 3167 3166 3166 3166 3166 3166 3166 3166 3166 3166 3166 3166 3166 3166 3166 3165 3165
3156 3156 3156 3157 3157 3157 3157 3157 3157 3157 3157 3157 3157 3158 3158 3158 3158 3158 3158 3158 3158 3158 3158 3158 3158 3158 3158 3158 3158 3158 3157 3157 3157 3157 3157 3156 3156 3156 3156 3156 3156 3156 3156 3156 3156 3156 3156 3156 3156 3156 3156 3156 3156 3157 3157 3157 3158 3158 3159 3159 3160 3161 3161 3162 3162 3162 3163 3163 3163 3164 3164 3164 3164 3164 3165 3165 3165 3165 3165 3166 3166 3166 3166 3166 3166 3166 3166 3166 3166 3167 3167 3167 3167 3166 3166 3166 3166 3166 3166 3166 3166 3165 3165
3155 3155 3156 3156 3157 3157 3157 3157 3157 3157 3157 3157 3157 3157 3157 3158 3158 3158 3158 3158 3158 3158 3158 3158 3158 3158 3158 3158 3157 3157 3157 3157 3157 3157 3156 3156 3156 3156 3155 3156 3156 3156 3156 3156 3156 3156 3156 3156 3156 3156 3156 3156 3156 3157 3157 3157 3158 3158 3159 3159 3160 3160 3161 3162 3162 3162 3163 3163 3163 3163 3164 3164 3164 3164 3165 3165 3165 3165 3165 3166 3166 3166 3166 3166 3166 3166 3166 3166 3166 3167 3167 3167 3167 3166 3166 3166 3166 3166 3166 3165 3165 3165 3165
3155 3155 3155 3156 3156 3156 3156 3156 3156 3156 3157 3157 3157 3157 3157 3157 3157 3157 3157 3157 3158 3158 3158 3158 3158 3157 3157 3157 3157 3157 3157 3157 3157 3156 3156 3156 3156 3155 3155 3155 3155 3156 3156 3156 3156 3156 3156 3156 3156 3156 3156 3156 3156 3157 3157 3157 3158 3158 3158 3159 3159 3160 3161 3161 3162 3162 3162 3163 3163 3163 3164 3164 3164 3164 3164 3165 3165 3165 3165 3165 3166 3166 3166 3166 3166 3166 3166 3166 3166 3166 3166 3166 3167 3167 3166 3166 3166 3166 3166 3166 3165 3165 3165
3154 3155 3155 3155 3156 3156 3156 3156 3156 3156 3157 3157 3156 3156 3156 3157 3157 3157 3157 3157 3157 3157 3157 3157 3157 3157 3157 3157 3157 3157 3157 3157 3157 3156 3156 3156 3156 3155 3155 3155 3155 3155 3156 3156 3156 3156 3156 3156 3156 3156 3156 3156 3157 3157 3157 3157 3158 3158 3158 3159 3159 3160 3161 3161 3162 3162 3162 3162 3163 3163 3163 3164 3164 3164 3164 3165 3165 3165 3165 3166 3166 3166 3166 3166 3166 3166 3166 3166 3166 3166 3166 3166 3166 3166 3166 3166 3166 3166 3166 3166 3165 3165 3165
3154 3154 3154 3155 3155 3155 3156 3155 3155 3156 3156 3156 3156 3156 3156 3156 3156 3157 3157 3157 3157 3157 3157 3157 3157 3157 3157 3157 3157 3157 3157 3157 3156 3156 3156 3156 3156 3155 3155 3155 3155 3155 3155 3156 3156 3156 3156 3156 3156 3156 3156 3156 3157 3157 3157 3157 3158 3158 3158 3159 3159 3160 3160 3161 3161 3162 3162 3162 3163 3163 3163 3164 3164 3164 3164 3164 3165 3165 3165 3165 3165 3166 3166 3166 3166 3166 3166 3166 3166 3166 3166 3166 3166 3166 3166 3166 3166 3166 3166 3165 3165 3165 3165
3154 3154 3154 3154 3154 3155 3155 3155 3155 3155 3155 3155 3155 3155 3156 3156 3156 3156 3156 3156 3157 3157 3157 3157 3157 3157 3157 3157 3157 3157 3157 3156 3156 3156 3156 3156 3156 3155 3155 3155 3155 3155 3155 3156 3156 3156 3156 3156 3156 3156 3156 3156 3157 3157 3157 3157 3158 3158 3159 3159 3159 3160 3160 3161 3161 3161 3162 3162 3162 3162 3163 3163 3164 3164 3164 3164 3164 3165 3165 3165 3165 3165 3165 3166 3166 3166 3166 3166 3166 3166 3166 3166 3166 3166 3166 3166 3166 3166 3166 3165 3165 3165 3165
3153 3153 3153 3154 3154 3154 3154 3155 3155 3155 3155 3155 3155 3155 3155 3156 3156 3156 3156 3156 3156 3156 3156 3156 3156 3156 3156 3156 3156 3156 3156 3156 3156 3156 3156 3156 3156 3155 3155 3155 3155 3155 3155 3155 3156 3156 3156 3156 3156 3156 3156 3156 3156 3157 3157 3157 3158 3158 3159 3159 3159 3159 3160 3160 3161 3161 3161 3162 3162 3162 3162 3163 3163 3164 3164 3164 3164 3164 3165 3165 3165 3165 3165 3165 3166 3166 3166 3166 3166 3166 3166 3166 3166 3166 3166 3166 3166 3166 3165 3165 3165 3165 3165
3153 3153 3153 3153 3153 3154 3154 3154 3154 3154 3154 3155 3155 3154 3154 3155 3155 3155 3155 3156 3156 3156 3156 3156 3156 3156 3156 3156 3156 3156 3156 3156 3156 3156 3156 3156 3156 3155 3155 3155 3155 3155 3155 3155 3155 3156 3156 3156 3156 3156 3156 3156 3156 3157 3157 3157 3158 3158 3159 3159 3159 3159 3160 3160 3160 3161 3161 3161 3162 3162 3162 3162 3163 3163 3164 3164 3164 3164 3164 3164 3165 3165 3165 3165 3165 3165 3166 3166 3166 3166 3166 3166 3166 3166 3166 3166 3166 3166 3165 3165 3165 3165 3165
3152 3152 3152 3152 3153 3153 3154 3154 3154 3154 3154 3154 3154 3154 3154 3154 3154 3155 3155 3155 3155 3155 3156 3156 3156 3156 3156 3156 3156 3156 3156 3156 3156 3156 3156 3156 3155 3155 3155 3155 3155 3155 3155 3155 3155 3155 3155 3156 3156 3156 3156 3156 3156 3157 3157 3157 3158 3158 3158 3159 3159 3159 3160 3160 3160 3161 3161 3161 3161 3162 3162 3162 3163 3163 3163 3164 3164 3164 3164 3164 3164 3164 3165 3165 3165 3165 3165 3166 3166 3166 3166 3166 3166 3166 3166 3166 3166 3165 3165 3165 3165 3165 3165
3151 3151 3152 3152 3152 3153 3153 3153 3153 3154 3154 3154 3154 3154 3154 3154 3154 3154 3154 3155 3155 3155 3155 3155 3155 3155 3155 3155 3156 3156 3156 3156 3156 3156 3156 3156 3155 3155 3155 3155 3155 3155 3155 3155 3155 3155 3155 3155 3156 3156 3156 3156 3156 3156 3157 3157 3157 3158 3158 3159 3159 3159 3160 3160 3160 3160 3161 3161 3161 3161 3162 3162 3162 3163 3163 3163 3164 3164 3164 3164 3164 3164 3164 3165 3165 3165 3165 3165 3165 3166 3166 3166 3166 3166 3166 3166 3165 3165 3165 3165 3165 3165 3165
3149 3150 3152 3151 3152 3152 3152 3153 3153 3153 3153 3154 3154 3154 3154 3154 3154 3154 3154 3154 3155 3155 3155 3155 3155 3155 3155 3155 3155 3155 3155 3155 3156 3156 3156 3156 3155 3155 3155 3155 3155 3155 3155 3155 3155 3155 3155 3155 3155 3155 3156 3156 3156 3156 3156 3157 3157 3157 3158 3158 3159 3159 3159 3160 3160 3160 3160 3161 3161 3161 3161 3162 3162 3162 3163 3163 3163 3163 3163 3164 3164 3164 3164 3165 3165 3165 3165 3165 3165 3165 3166 3166 3166 3166 3166 3165 3165 3165 3165 3165 3165 3165 3164
3149 3150 3150 3151 3151 3152 3152 3152 3152 3153 3153 3153 3153 3153 3154 3154 3154 3154 3154 3154 3154 3154 3154 3155 3155 3155 3155 3155 3155 3155 3155 3155 3155 3155 3156 3156 3155 3155 3155 3155 3155 3155 3155 3155 3155 3155 3155 3155 3155 3155 3155 3155 3156 3156 3156 3156 3157 3157 3158 3158 3159 3159 3159 3159 3160 3160 3160 3160 3161 3161 3161 3161 3162 3162 3162 3163 3163 3163 3163 3164 3164 3164 3164 3164 3165 3165 3165 3165 3165 3165 3165 3165 3165 3165 3165 3165 3165 3165 3165 3165 3165 3165 3164
3148 3149 3149 3149 3150 3151 3151 3151 3152 3152 3153 3152 3152 3153 3153 3153 3153 3154 3154 3154 3154 3154 3154 3154 3154 3154 3154 3154 3154 3155 3155 3155 3155 3155 3155 3155 3155 3155 3155 3155 3155 3155 3155 3155 3155 3155 3155 3155 3155 3155 3155 3155 3155 3155 3156 3156 3156 3156 3157 3158 3158 3159 3159 3159 3159 3160 3160 3160 3160 3161 3161 3161 3161 3162 3162 3162 3163 3163 3163 3163 3164 3164 3164 3164 3164 3164 3165 3165 3165 3165 3165 3165 3165 3165 3165 3165 3165 3165 3165 3165 3165 3164 3164
3147 3148 3148 3149 3149 3150 3150 3151 3151 3151 3152 3152 3152 3152 3152 3152 3153 3153 3153 3153 3154 3154 3154 3154 3154 3154 3154 3154 3154 3154 3154 3154 3154 3154 3155 3155 3155 3155 3155 3154 3154 3154 3154 3154 3154 3154 3154 3154 3154 3154 3154 3155 3155 3155 3155 3155 3155 3156 3156 3157 3158 3158 3158 3159 3159 3159 3160 3160 3160 3160 3160 3161 3161 3161 3162 3162 3162 3163 3163 3163 3163 3164 3164 3164 3164 3164 3164 3165 3165 3165 3165 3165 3165 3165 3165 3165 3165 3165 3165 3165 3164 3164 3164
3147 3147 3148 3148 3149 3149 3149 3150 3150 3150 3151 3151 3151 3152 3152 3152 3152 3152 3153 3153 3153 3153 3153 3153 3154 3154 3154 3154 3154 3154 3154 3154 3154 3154 3154 3154 3155 3155 3154 3154 3154 3154 3154 3154 3154 3154 3154 3154 3154 3154 3154 3154 3154 3154 3155 3155 3155 3155 3156 3156 3157 3158 3158 3158 3159 3159 3159 3159 3160 3160 3160 3161 3161 3161 3161 3162 3162 3162 3163 3163 3163 3163 3163 3164 3164 3164 3164 3164 3164 3164 3165 3165 3165 3165 3165 3165 3165 3165 3164 3164 3164 3164 3164
3145 3146 3147 3147 3148 3148 3148 3149 3149 3149 3150 3150 3151 3151 3152 3151 3151 3152 3152 3152 3152 3153 3153 3153 3153 3153 3153 3154 3154 3154 3154 3154 3154 3154 3154 3154 3154 3154 3154 3154 3154 3154 3154 3154 3154 3154 3154 3154 3154 3154 3154 3154 3154 3154 3154 3154 3154 3155 3155 3156 3156 3157 3157 3158 3158 3159 3159 3159 3159 3160 3160 3160 3161 3161 3161 3161 3162 3162 3162 3162 3163 3163 3163 3163 3163 3164 3164 3164 3164 3164 3164 3164 3164 3164 3164 3164 3164 3164 3164 3164 3164 3164 3164
3144 3145 3145 3146 3147 3147 3147 3148 3148 3148 3149 3149 3150 3150 3150 3150 3151 3151 3151 3152 3152 3152 3152 3152 3152 3153 3153 3153 3153 3153 3153 3153 3153 3153 3154 3154 3154 3154 3154 3154 3154 3154 3154 3154 3154 3154 3154 3154 3154 3154 3154 3154 3154 3154 3154 3154 3154 3154 3154 3155 3156 3156 3157 3157 3158 3158 3158 3159 3159 3159 3159 3160 3160 3160 3161 3161 3161 3161 3162 3162 3162 3162 3162 3163 3163 3163 3164 3164 3164 3164 3164 3164 3164 3164 3164 3164 3164 3164 3164 3164 3164 3164 3164
3144 3144 3144 3145 3146 3146 3146 3147 3147 3147 3149 3149 3149 3149 3149 3149 3150 3150 3150 3151 3151 3151 3151 3152 3152 3152 3152 3153 3153 3153 3153 3153 3153 3153 3153 3153 3153 3153 3153 3153 3153 3153 3153 3153 3153 3153 3153 3153 3153 3153 3153 3153 3153 3153 3153 3153 3153 3154 3154 3154 3155 3155 3156 3156 3157 3157 3158 3158 3158 3159 3159 3159 3159 3160 3160 3160 3161 3161 3161 3161 3162 3162 3162 3162 3163 3163 3163 3163 3164 3164 3164 3164 3164 3164 3164 3164 3164 3164 3164 3164 3164 3164 3163
3142 3143 3144 3144 3144 3145 3145 3146 3146 3146 3148 3148 3149 3148 3148 3149 3149 3149 3150 3150 3151 3151 3151 3151 3151 3152 3152 3152 3152 3152 3152 3152 3152 3152 3152 3153 3153 3153 3153 3153 3153 3153 3153 3153 3153 3153 3153 3153 3153 3153 3153 3153 3153 3153 3153 3153 3153 3153 3153 3154 3154 3155 3155 3156 3156 3157 3157 3157 3158 3158 3158 3159 3159 3159 3159 3160 3160 3160 3161 3161 3161 3161 3162 3162 3162 3162 3163 3163 3163 3163 3163 3163 3163 3163 3163 3164 3164 3164 3164 3163 3163 3163 3163
3141 3142 3143 3143 3144 3144 3144 3145 3145 3145 3147 3147 3148 3148 3147 3148 3148 3149 3149 3149 3150 3150 3150 3150 3151 3151 3151 3151 3151 3152 3152 3152 3152 3152 3152 3152 3152 3152 3152 3152 3152 3152 3152 3152 3153 3153 3153 3153 3152 3152 3152 3152 3152 3152 3152 3152 3152 3152 3153 3153 3154 3154 3154 3155 3155 3156 3156 3157 3157 3157 3158 3158 3158 3159 3159 3159 3159 3160 3160 3160 3161 3161 3161 3161 3162 3162 3162 3162 3163 3163 3163 3163 3163 3163 3163 3163 3163 3163 3163 3163 3163 3163 3163
3140 3141 3141 3142 3142 3143 3143 3144 3144 3144 3145 3145 3146 3147 3147 3147 3148 3148 3149 3149 3149 3149 3149 3150 3150 3150 3150 3150 3151 3151 3151 3151 3151 3151 3151 3151 3151 3152 3152 3152 3152 3152 3152 3152 3152 3152 3152 3152 3152 3152 3152 3152 3152 3152 3152 3152 3152 3152 3152 3153 3153 3153 3154 3154 3154 3155 3155 3156 3156 3156 3157 3157 3158 3158 3158 3159 3159 3159 3159 3160 3160 3160 3161 3161 3161 3161 3162 3162 3162 3162 3163 3163 3163 3163 3163 3163 3163 3163 3163 3163 3163 3163 3163
3139 3140 3140 3141 3141 3142 3142 3142 3143 3143 3144 3144 3145 3145 3146 3146 3147 3147 3148 3148 3148 3148 3149 3149 3149 3150 3149 3150 3150 3150 3150 3150 3150 3150 3150 3150 3151 3151 3151 3151 3151 3151 3151 3151 3151 3151 3151 3151 3152 3151 3151 3151 3151 3151 3151 3151 3151 3151 3151 3152 3152 3153 3153 3153 3154 3154 3154 3155 3155 3156 3156 3156 3157 3157 3157 3158 3158 3158 3159 3159 3159 3159 3160 3160 3160 3161 3161 3161 3161 3162 3162 3162 3162 3162 3162 3162 3162 3162 3162 3162 3162 3162 3162
3139 3139 3139 3140 3140 3140 3141 3141 3142 3142 3142 3143 3144 3144 3144 3145 3145 3146 3146 3147 3147 3148 3148 3148 3149 3149 3149 3149 3149 3149 3149 3149 3149 3149 3149 3150 3150 3150 3150 3150 3150 3150 3151 3151 3151 3151 3151 3151 3151 3151 3151 3151 3151 3151 3151 3150 3150 3150 3151 3151 3151 3152 3152 3152 3153 3153 3154 3154 3154 3155 3155 3155 3156 3156 3156 3157 3157 3158 3158 3158 3159 3159 3159 3159 3160 3160 3160 3161 3161 3161 3161 3161 3162 3162 3162 3162 3162 3162 3162 3162 3162 3162 3162
3138 3138 3139 3139 3139 3139 3140 3140 3140 3141 3141 3142 3142 3143 3143 3143 3144 3144 3144 3145 3146 3147 3147 3147 3147 3148 3148 3148 3148 3148 3149 3149 3149 3149 3149 3149 3149 3149 3149 3149 3150 3150 3150 3150 3150 3150 3150 3150 3150 3150 3150 3150 3150 3150 3150 3150 3150 3150 3150 3150 3151 3151 3151 3152 3152 3152 3153 3153 3154 3154 3154 3155 3155 3155 3155 3156 3157 3157 3157 3158 3158 3158 3159 3159 3159 3159 3160 3160 3160 3161 3161 3161 3161 3161 3161 3161 3161 3161 3161 3161 3161 3161 3161
3137 3137 3137 3138 3138 3138 3139 3139 3139 3140 3140 3140 3140 3141 3141 3142 3142 3142 3143 3143 3144 3144 3145 3145 3146 3147 3147 3147 3147 3147 3147 3148 3148 3148 3148 3148 3148 3148 3149 3149 3149 3149 3149 3149 3149 3149 3149 3149 3149 3150 3150 3150 3150 3150 3150 3149 3149 3149 3149 3149 3150 3150 3150 3151 3151 3151 3152 3152 3153 3153 3154 3154 3154 3154 3155 3155 3156 3156 3156 3157 3157 3157 3158 3158 3159 3159 3159 3159 3160 3160 3160 3160 3160 3160 3161 3161 3161 3161 3161 3161 3161 3161 3161
3136 3136 3136 3136 3137 3137 3138 3138 3138 3139 3139 3139 3139 3140 3140 3140 3141 3141 3141 3142 3142 3143 3144 3144 3144 3145 3146 3146 3146 3146 3146 3146 3147 3147 3147 3147 3147 3147 3148 3148 3148 3148 3148 3149 3149 3149 3149 3149 3149 3149 3149 3149 3149 3149 3149 3149 3149 3149 3149 3149 3149 3149 3149 3150 3150 3150 3151 3151 3152 3152 3153 3153 3153 3154 3154 3154 3154 3155 3155 3156 3156 3157 3157 3157 3158 3158 3159 3159 3159 3159 3159 3159 3160 3160 3160 3160 3160 3160 3160 3160 3160 3160 3160
3134 3135 3134 3135 3135 3136 3136 3136 3137 3137 3137 3138 3138 3139 3139 3139 3139 3140 3140 3140 3141 3141 3142 3143 3143 3144 3144 3145 3145 3145 3145 3145 3146 3146 3146 3146 3146 3146 3147 3147 3147 3147 3147 3148 3148 3148 3148 3148 3148 3148 3149 3149 3149 3149 3149 3149 3149 3148 3148 3148 3149 3149 3149 3149 3149 3149 3150 3150 3151 3151 3152 3152 3152 3153 3153 3153 3154 3154 3154 3155 3155 3155 3156 3157 3157 3157 3158 3158 3158 3159 3159 3159 3159 3159 3159 3159 3159 3159 3159 3159 3159 3159 3159
3133 3133 3133 3133 3134 3134 3135 3135 3135 3135 3136 3136 3137 3137 3138 3138 3138 3139 3139 3139 3140 3140 3141 3141 3142 3142 3143 3144 3144 3143 3143 3144 3144 3145 3145 3145 3145 3145 3146 3146 3146 3146 3146 3147 3147 3147 3147 3147 3147 3148 3148 3148 3148 3148 3148 3148 3148 3148 3148 3148 3148 3148 3148 3148 3148 3149 3149 3149 3150 3150 3150 3151 3151 3151 3151 3152 3153 3153 3154 3154 3154 3155 3155 3155 3156 3157 3157 3157 3157 3158 3158 3158 3158 3159 3159 3159 3159 3159 3159 3159 3159 3159 3159
3131 3131 3131 3131 3132 3132 3133 3133 3134 3134 3134 3135 3135 3136 3136 3137 3137 3137 3138 3138 3139 3139 3139 3140 3141 3141 3141 3142 3141 3141 3142 3143 3143 3144 3144 3144 3144 3145 3145 3145 3145 3145 3145 3146 3146 3146 3146 3147 3147 3147 3147 3147 3147 3147 3147 3147 3147 3147 3147 3147 3147 3147 3147 3147 3148 3148 3148 3148 3149 3149 3149 3150 3150 3150 3151 3151 3152 3153 3153 3153 3153 3154 3154 3154 3155 3155 3156 3156 3157 3157 3157 3157 3158 3158 3158 3158 3158 3158 3158 3158 3158 3158 3158
3129 3129 3129 3129 3130 3130 3131 3131 3132 3133 3133 3134 3134 3134 3135 3135 3135 3136 3136 3137 3137 3138 3138 3139 3139 3139 3140 3140 3140 3139 3141 3142 3142 3143 3143 3143 3144 3144 3144 3144 3144 3144 3144 3145 3145 3145 3145 3146 3146 3146 3146 3146 3147 3147 3147 3147 3147 3147 3147 3147 3147 3146 3146 3146 3147 3147 3147 3148 3148 3148 3149 3149 3149 3149 3150 3150 3151 3151 3153 3152 3152 3152 3153 3154 3154 3154 3155 3155 3155 3156 3156 3156 3157 3157 3157 3157 3157 3157 3157 3157 3157 3157 3157
3128 3128 3127 3128 3128 3129 3129 3130 3130 3131 3131 3132 3133 3133 3134 3134 3134 3135 3135 3135 3135 3136 3137 3137 3138 3138 3138 3138 3138 3139 3139 3140 3141 3141 3142 3142 3143 3143 3143 3143 3143 3144 3144 3144 3144 3144 3144 3145 3145 3145 3145 3146 3146 3146 3146 3146 3146 3146 3146 3146 3146 3146 3146 3146 3146 3146 3146 3147 3147 3147 3147 3148 3148 3149 3150 3149 3150 3150 3151 3151 3151 3151 3152 3153 3153 3153 3154 3154 3154 3155 3155 3155 3156 3156 3156 3156 3156 3156 3156 3156 3156 3156 3156
3125 3125 3125 3125 3127 3128 3129 3129 3129 3129 3130 3130 3131 3132 3132 3133 3134 3135 3135 3134 3134 3134 3135 3136 3136 3136 3137 3137 3137 3138 3139 3139 3139 3140 3140 3141 3141 3141 3142 3142 3143 3143 3143 3143 3143 3144 3144 3144 3144 3144 3144 3145 3145 3145 3145 3145 3145 3145 3145 3145 3145 3145 3145 3145 3145 3145 3145 3146 3146 3146 3146 3147 3147 3148 3148 3148 3149 3150 3150 3150 3150 3150 3151 3151 3152 3152 3153 3153 3153 3154 3154 3154 3155 3155 3155 3155 3155 3155 3155 3155 3155 3155 3155
3124 3123 3123 3123 3124 3126 3127 3128 3128 3128 3129 3129 3129 3130 3131 3131 3133 3134 3134 3134 3133 3133 3134 3134 3135 3135 3135 3136 3136 3136 3137 3137 3138 3138 3139 3139 3139 3140 3140 3141 3142 3142 3142 3142 3142 3142 3143 3143 3143 3144 3144 3144 3144 3144 3144 3144 3144 3144 3144 3144 3144 3144 3144 3144 3144 3144 3145 3145 3145 3145 3145 3146 3146 3146 3147 3147 3148 3148 3149 3149 3149 3149 3150 3150 3150 3151 3151 3152 3152 3153 3153 3153 3154 3154 3154 3154 3154 3154 3154 3154 3154 3154 3154
3122 3121 3120 3121 3122 3124 3124 3125 3126 3127 3127 3128 3128 3129 3129 3130 3131 3132 3132 3132 3133 3133 3132 3133 3134 3134 3134 3134 3135 3135 3136 3136 3136 3136 3137 3137 3138 3138 3139 3139 3140 3140 3140 3141 3141 3141 3141 3142 3142 3143 3143 3143 3143 3143 3143 3143 3143 3143 3143 3143 3143 3143 3143 3144 3144 3144 3144 3144 3144 3144 3144 3144 3145 3145 3146 3146 3147 3147 3148 3148 3148 3148 3148 3149 3149 3150 3150 3151 3151 3151 3152 3152 3152 3152 3153 3153 3153 3153 3154 3154 3154 3154 3154
3119 3120 3119 3119 3120 3122 3123 3124 3124 3125 3126 3126 3127 3128 3128 3129 3129 3130 3131 3129 3129 3129 3130 3131 3132 3133 3133 3133 3133 3134 3134 3134 3134 3134 3135 3136 3136 3136 3137 3137 3137 3138 3139 3139 3139 3139 3140 3140 3141 3141 3141 3142 3142 3142 3142 3142 3142 3142 3142 3142 3142 3142 3142 3142 3143 3143 3143 3143 3143 3143 3143 3144 3144 3144 3144 3145 3145 3146 3146 3146 3146 3147 3147 3148 3148 3148 3149 3149 3150 3150 3150 3151 3151 3152 3152 3152 3152 3152 3152 3152 3153 3153 3153
3117 3118 3118 3119 3120 3120 3121 3122 3123 3123 3124 3125 3125 3126 3126 3127 3128 3129 3129 3128 3127 3126 3127 3129 3130 3131 3132 3131 3132 3132 3132 3133 3133 3133 3134 3134 3134 3135 3135 3135 3135 3136 3137 3138 3138 3138 3138 3139 3139 3140 3140 3140 3140 3140 3140 3140 3140 3141 3140 3140 3140 3141 3141 3141 3141 3142 3142 3142 3142 3142 3142 3142 3143 3143 3143 3144 3144 3144 3144 3145 3145 3145 3146 3146 3147 3147 3148 3148 3149 3149 3149 3149 3150 3150 3150 3151 3151 3151 3151 3151 3151 3151 3152
3115 3115 3116 3117 3118 3119 3119 3120 3120 3121 3122 3123 3124 3124 3124 3125 3126 3127 3128 3127 3126 3125 3125 3126 3127 3129 3129 3130 3130 3130 3131 3131 3131 3132 3132 3132 3133 3133 3134 3134 3134 3134 3135 3136 3136 3136 3136 3137 3137 3138 3139 3139 3139 3139 3139 3139 3139 3139 3139 3139 3139 3139 3139 3140 3140 3140 3140 3141 3141 3141 3141 3141 3141 3142 3142 3142 3143 3143 3143 3144 3144 3144 3144 3145 3145 3146 3146 3147 3147 3147 3148 3148 3149 3149 3149 3149 3149 3150 3150 3150 3150 3150 3150
3113 3113 3114 3115 3116 3117 3118 3118 3119 3119 3120 3121 3121 3122 3122 3123 3124 3125 3126 3126 3125 3124 3123 3124 3124 3125 3126 3128 3129 3129 3129 3129 3129 3130 3131 3131 3132 3132 3132 3132 3132 3133 3133 3134 3134 3134 3134 3135 3135 3136 3137 3137 3137 3137 3137 3138 3138 3138 3138 3138 3138 3138 3138 3139 3139 3139 3139 3139 3139 3139 3140 3140 3140 3140 3141 3141 3141 3141 3142 3142 3143 3143 3143 3144 3144 3144 3144 3145 3145 3146 3146 3147 3147 3147 3148 3148 3148 3148 3149 3149 3149 3149 3149
3110 3111 3112 3113 3114 3114 3115 3116 3116 3117 3118 3118 3119 3119 3120 3120 3122 3123 3124 3124 3124 3123 3121 3121 3122 3123 3124 3125 3125 3127 3128 3128 3128 3128 3129 3129 3130 3130 3130 3130 3130 3131 3131 3132 3132 3133 3133 3133 3134 3134 3135 3135 3135 3136 3136 3136 3137 3137 3137 3137 3137 3137 3137 3137 3137 3137 3138 3138 3138 3138 3138 3139 3139 3139 3139 3139 3140 3140 3140 3141 3141 3141 3142 3142 3142 3143 3143 3144 3144 3144 3144 3145 3145 3146 3146 3146 3147 3147 3147 3147 3148 3148 3148
3108 3109 3109 3110 3111 3112 3113 3114 3114 3115 3115 3116 3117 3117 3118 3118 3119 3120 3121 3122 3122 3121 3118 3118 3119 3120 3122 3122 3122 3123 3124 3125 3126 3126 3127 3127 3128 3128 3129 3128 3129 3129 3129 3130 3130 3131 3131 3131 3132 3132 3133 3133 3134 3134 3134 3135 3135 3135 3135 3136 3136 3136 3136 3136 3136 3136 3136 3136 3137 3137 3137 3137 3137 3137 3138 3138 3138 3139 3139 3139 3139 3140 3140 3141 3141 3141 3142 3142 3143 3143 3143 3144 3144 3144 3144 3145 3145 3145 3145 3146 3146 3146 3146
3104 3105 3107 3108 3109 3110 3111 3111 3112 3112 3113 3114 3114 3115 3116 3117 3117 3118 3119 3119 3120 3119 3116 3115 3116 3117 3118 3118 3119 3120 3121 3122 3124 3125 3125 3125 3125 3126 3126 3126 3126 3127 3127 3127 3128 3128 3129 3129 3129 3130 3130 3131 3131 3132 3133 3133 3133 3133 3134 3134 3134 3134 3135 3135 3135 3135 3135 3135 3135 3135 3135 3136 3136 3136 3136 3136 3137 3137 3137 3138 3138 3139 3139 3139 3139 3140 3140 3140 3141 3141 3142 3142 3142 3143 3142 3143 3144 3144 3144 3144 3144 3144 3145
3101 3103 3104 3104 3106 3107 3108 3109 3109 3110 3110 3111 3112 3113 3113 3114 3115 3116 3117 3118 3118 3116 3114 3114 3114 3114 3115 3115 3116 3116 3117 3119 3121 3123 3123 3123 3123 3123 3124 3124 3124 3125 3125 3125 3125 3126 3126 3127 3127 3127 3128 3129 3129 3130 3130 3130 3130 3131 3131 3132 3132 3133 3133 3134 3134 3134 3134 3134 3134 3134 3134 3134 3134 3134 3134 3135 3135 3135 3136 3136 3137 3137 3138 3138 3138 3139 3139 3139 3139 3139 3140 3140 3141 3141 3141 3142 3142 3142 3143 3143 3143 3143 3144
3099 3099 3100 3102 3103 3104 3105 3106 3106 3107 3108 3109 3109 3110 3111 3112 3113 3114 3114 3115 3115 3114 3113 3113 3114 3114 3114 3115 3115 3115 3116 3118 3119 3120 3121 3121 3121 3121 3121 3121 3122 3122 3123 3123 3123 3124 3124 3124 3125 3125 3126 3126 3127 3127 3127 3126 3127 3129 3129 3130 3130 3131 3131 3132 3132 3132 3132 3133 3133 3133 3133 3133 3133 3133 3133 3133 3133 3134 3134 3134 3135 3135 3136 3136 3137 3137 3137 3137 3138 3138 3138 3139 3139 3139 3140 3140 3140 3140 3141 3141 3141 3142 3143
3096 3097 3098 3099 3100 3101 3102 3103 3104 3104 3105 3106 3107 3107 3108 3109 3110 3111 3111 3112 3112 3112 3111 3112 3113 3114 3114 3115 3115 3114 3115 3116 3117 3119 3119 3119 3119 3119 3119 3119 3119 3119 3120 3120 3121 3121 3122 3122 3123 3123 3124 3124 3124 3125 3125 3124 3125 3126 3127 3128 3128 3129 3129 3130 3130 3130 3131 3131 3131 3132 3132 3132 3132 3132 3132 3132 3132 3132 3132 3133 3133 3134 3134 3134 3135 3135 3136 3136 3136 3136 3136 3137 3137 3138 3138 3139 3139 3139 3139 3139 3140 3140 3141
3093 3094 3095 3096 3097 3098 3099 3100 3101 3101 3102 3103 3104 3105 3105 3106 3107 3108 3108 3109 3109 3109 3109 3110 3110 3111 3112 3112 3113 3113 3114 3114 3115 3116 3116 3116 3116 3116 3116 3116 3116 3117 3117 3118 3118 3119 3119 3120 3120 3121 3122 3122 3122 3123 3123 3122 3122 3123 3124 3124 3125 3126 3127 3128 3129 3129 3129 3129 3130 3130 3131 3131 3131 3131 3131 3130 3130 3131 3131 3131 3131 3132 3132 3133 3133 3134 3134 3134 3134 3135 3135 3135 3135 3136 3136 3137 3137 3137 3138 3138 3138 3138 3139
3090 3091 3092 3093 3094 3095 3096 3097 3097 3098 3099 3100 3101 3102 3103 3103 3104 3105 3105 3106 3106 3107 3107 3107 3108 3109 3109 3109 3110 3111 3111 3112 3112 3113 3113 3114 3114 3114 3114 3114 3114 3114 3115 3115 3116 3116 3116 3117 3118 3119 3119 3120 3120 3120 3121 3120 3120 3120 3120 3121 3123 3124 3125 3126 3127 3127 3127 3128 3128 3129 3129 3129 3129 3129 3129 3129 3129 3129 3129 3129 3130 3130 3130 3131 3131 3132 3132 3132 3133 3133 3133 3134 3134 3134 3134 3135 3135 3135 3136 3136 3136 3136 3137
3087 3088 3089 3090 3091 3092 3093 3094 3094 3095 3096 3097 3098 3099 3099 3100 3101 3102 3103 3103 3104 3104 3104 3104 3105 3106 3107 3108 3109 3109 3109 3109 3109 3109 3110 3111 3111 3112 3111 3111 3111 3112 3112 3112 3113 3113 3113 3114 3114 3116 3117 3117 3118 3118 3119 3119 3118 3118 3118 3119 3120 3122 3123 3124 3125 3125 3125 3125 3126 3126 3127 3127 3127 3127 3127 3127 3127 3127 3128 3128 3128 3128 3129 3129 3129 3129 3130 3130 3131 3131 3132 3132 3132 3132 3133 3133 3133 3134 3134 3134 3134 3134 3135
3085 3085 3086 3087 3088 3089 3090 3090 3091 3092 3093 3094 3094 3095 3096 3097 3098 3099 3100 3100 3101 3101 3102 3102 3103 3104 3104 3105 3107 3108 3108 3107 3106 3107 3108 3109 3110 3110 3110 3109 3109 3109 3109 3110 3110 3110 3111 3111 3112 3114 3114 3115 3115 3116 3116 3117 3117 3116 3116 3116 3118 3119 3120 3122 3122 3123 3123 3124 3124 3124 3125 3125 3125 3125 3125 3125 3125 3126 3126 3126 3126 3126 3126 3127 3127 3127 3128 3128 3129 3129 3130 3130 3130 3130 3131 3131 3131 3132 3132 3133 3133 3133 3133
3082 3083 3084 3084 3085 3086 3087 3088 3089 3089 3090 3091 3092 3093 3094 3094 3095 3096 3097 3098 3098 3099 3099 3100 3100 3101 3102 3103 3104 3105 3106 3105 3104 3105 3106 3107 3108 3109 3109 3108 3107 3106 3106 3106 3106 3107 3108 3109 3110 3111 3112 3112 3113 3114 3114 3115 3115 3115 3114 3114 3115 3117 3118 3119 3120 3120 3121 3121 3122 3122 3122 3123 3123 3123 3123 3124 3124 3124 3124 3124 3124 3124 3124 3124 3124 3124 3125 3126 3126 3127 3128 3128 3128 3129 3129 3129 3129 3130 3130 3131 3131 3131 3131
3080 3080 3081 3082 3083 3084 3084 3085 3086 3087 3088 3089 3089 3090 3090 3091 3092 3093 3094 3095 3096 3096 3097 3097 3098 3099 3099 3100 3102 3103 3104 3104 3103 3103 3104 3105 3106 3106 3105 3106 3105 3104 3104 3104 3104 3103 3104 3106 3108 3109 3109 3109 3109 3110 3112 3112 3113 3113 3113 3113 3114 3115 3116 3117 3117 3118 3119 3119 3119 3119 3120 3120 3120 3121 3121 3121 3122 3122 3122 3122 3122 3121 3121 3121 3122 3122 3122 3123 3124 3124 3125 3125 3126 3126 3127 3127 3127 3128 3128 3129 3129 3129 3129
3078 3079 3079 3080 3081 3082 3083 3083 3084 3085 3085 3086 3087 3088 3088 3089 3090 3091 3092 3092 3093 3094 3094 3095 3095 3096 3097 3098 3099 3100 3101 3102 3102 3102 3102 3102 3103 3103 3102 3102 3102 3102 3102 3103 3102 3102 3102 3104 3105 3106 3107 3106 3107 3107 3109 3110 3110 3111 3112 3112 3113 3113 3114 3115 3115 3116 3116 3116 3117 3117 3117 3118 3118 3118 3119 3119 3119 3120 3120 3120 3120 3119 3119 3119 3119 3119 3119 3120 3120 3121 3122 3123 3123 3124 3124 3124 3125 3125 3126 3126 3127 3127 3127
3076 3076 3077 3078 3079 3079 3080 3081 3082 3083 3084 3084 3085 3086 3086 3087 3088 3088 3089 3090 3090 3091 3091 3092 3093 3094 3094 3095 3096 3097 3098 3099 3099 3100 3100 3100 3100 3100 3099 3099 3099 3100 3099 3099 3099 3099 3100 3102 3104 3104 3105 3105 3106 3106 3107 3108 3109 3110 3110 3111 3111 3112 3112 3112 3113 3113 3113 3113 3114 3114 3114 3115 3115 3116 3116 3117 3117 3117 3118 3118 3118 3118 3117 3117 3117 3116 3117 3117 3117 3118 3119 3119 3120 3121 3122 3122 3123 3123 3123 3124 3124 3124 3125
3074 3074 3075 3076 3077 3077 3078 3079 3079 3080 3081 3082 3083 3084 3084 3085 3086 3086 3087 3088 3088 3089 3089 3089 3090 3091 3091 3092 3093 3094 3095 3095 3096 3097 3098 3098 3098 3098 3098 3098 3098 3098 3097 3097 3096 3097 3099 3100 3101 3102 3102 3104 3105 3105 3106 3107 3107 3108 3108 3109 3109 3109 3109 3109 3109 3109 3109 3110 3111 3111 3112 3112 3113 3113 3113 3114 3114 3115 3115 3115 3115 3115 3115 3115 3114 3114 3114 3114 3115 3115 3115 3116 3117 3118 3119 3119 3120 3120 3121 3121 3122 3122 3123
3072 3072 3073 3074 3074 3075 3075 3076 3077 3077 3078 3079 3080 3081 3082 3083 3083 3084 3085 3085 3086 3087 3088 3088 3088 3088 3089 3089 3090 3090 3091 3092 3093 3094 3094 3095 3095 3095 3095 3095 3095 3095 3095 3095 3095 3096 3097 3098 3099 3099 3099 3101 3102 3103 3104 3104 3104 3104 3105 3105 3105 3105 3106 3106 3106 3106 3106 3107 3108 3108 3109 3109 3110 3110 3110 3111 3111 3112 3112 3113 3112 3112 3112 3112 3112 3112 3112 3112 3112 3113 3113 3114 3114 3115 3116 3117 3118 3118 3118 3119 3119 3119 3120
3069 3070 3071 3071 3072 3073 3073 3074 3074 3075 3075 3076 3077 3078 3079 3079 3080 3081 3082 3083 3083 3084 3085 3086 3086 3086 3086 3087 3087 3088 3089 3089 3090 3091 3091 3092 3092 3093 3093 3093 3093 3093 3093 3093 3094 3095 3095 3097 3097 3097 3097 3097 3098 3099 3101 3101 3101 3101 3101 3101 3102 3102 3102 3102 3102 3103 3103 3104 3104 3105 3106 3107 3107 3107 3108 3108 3108 3109 3109 3110 3110 3110 3110 3110 3110 3109 3109 3109 3110 3110 3110 3111 3112 3113 3114 3114 3115 3115 3116 3116 3116 3117 3117
3067 3068 3068 3069 3070 3070 3071 3072 3072 3073 3073 3074 3074 3075 3076 3077 3077 3078 3079 3079 3080 3081 3082 3083 3083 3083 3084 3084 3085 3086 3086 3087 3088 3088 3089 3089 3089 3089 3090 3091 3091 3091 3091 3092 3092 3094 3094 3095 3095 3094 3095 3094 3094 3095 3097 3097 3098 3098 3098 3098 3099 3099 3099 3099 3099 3100 3100 3101 3102 3103 3103 3104 3104 3104 3104 3105 3105 3105 3106 3107 3107 3107 3107 3107 3107 3107 3107 3107 3107 3107 3108 3109 3109 3110 3111 3111 3112 3113 3113 3114 3114 3114 3115
3064 3065 3066 3067 3067 3068 3069 3069 3070 3071 3071 3072 3072 3073 3074 3074 3075 3075 3076 3076 3077 3078 3078 3079 3079 3080 3081 3082 3082 3083 3083 3084 3085 3085 3086 3086 3086 3086 3087 3088 3088 3089 3089 3090 3090 3091 3092 3092 3093 3093 3093 3092 3091 3091 3092 3092 3094 3094 3094 3095 3095 3096 3096 3096 3096 3097 3098 3098 3099 3100 3100 3101 3101 3102 3102 3102 3102 3102 3103 3104 3104 3104 3105 3105 3105 3104 3104 3104 3104 3104 3105 3105 3106 3107 3108 3109 3109 3110 3110 3111 3111 3112 3112
3062 3063 3064 3064 3065 3065 3066 3067 3068 3068 3069 3069 3070 3070 3071 3071 3072 3073 3073 3074 3074 3075 3075 3076 3077 3078 3078 3079 3079 3080 3080 3081 3082 3082 3083 3083 3083 3084 3085 3085 3086 3086 3088 3088 3089 3089 3089 3089 3089 3090 3090 3090 3089 3089 3088 3088 3089 3090 3090 3091 3092 3093 3092 3093 3093 3094 3095 3095 3096 3097 3098 3098 3099 3099 3099 3099 3099 3099 3100 3100 3101 3101 3102 3102 3102 3102 3102 3102 3102 3101 3102 3102 3103 3104 3105 3106 3106 3107 3107 3108 3109 3109 3109